[[{"header":{"parameterUnit":"m.s-1","parameterCategory":2,"la1":30.2991,"la2":30.254,"lo1":-89.0895,"lo2":-89.0444,"dy":0.0017,"dx":0.0017,"nx":28,"ny":28,"refTime":"2023-08-06T03:00:00:Z","depth":"0","parameterNumber":2,"parameterNumberName":"U-component_of_CURRENTS"},"data":[0,0,0,0,0,0,0,0,0,0,0,0,0,0,0,0,0,0,0,0,0,0,0,0,0,0,0,0,0,0,0,0,0,0,0,0,0,0,0,0,0,0,0,0,0,0,0,0,0,0,0,0,0,0,0,0,0,0,0.163,0.163,0,0.1601,0.1601,0.1601,0.1594,0.1594,0.1594,0.1594,0.1498,0.1495,0.1493,0,0,0,0,0,0,0,0,0,0,0,0,0,0.1637,0.1637,0.1631,0.163,0.163,0.1601,0.1601,0.1601,0.1594,0.1594,0.1594,0.1594,0.1499,0.1496,0.1493,0,0,0,0,0,0,0,0,0,0,0,0,0,0.1624,0.1637,0.1631,0.1623,0.1622,0.1601,0.1601,0.16,0.1594,0.1594,0.1594,0.1594,0.15,0.1496,0.1492,0.1462,0,0,0.148,0.1478,0,0,0,0,0,0,0,0,0.1625,0.1624,0.1624,0.1623,0.1622,0.1601,0.1568,0.1551,0.1593,0.1604,0.1594,0.1594,0.1526,0.152,0.1515,0.1457,0.1453,0.1479,0.1477,0.1475,0.1474,0,0,0,0,0,0,0,0.1626,0.1625,0.1619,0.1624,0.1622,0.1606,0.1605,0.1565,0.1563,0.1604,0.1603,0.1599,0.1525,0.1519,0.1513,0.1452,0.1479,0.1476,0.1473,0.1472,0.1477,0.148,0,0,0,0,0,0,0.1631,0.1626,0.162,0.1618,0.1624,0.1606,0.1604,0.1608,0.1565,0.1559,0.1599,0.1599,0.1526,0.1517,0.1509,0.1513,0.1475,0.1471,0.1469,0.1475,0.1478,0.1481,0,0,0,0,0,0,0.1631,0.1631,0.1621,0.1621,0.1618,0.1605,0.1609,0.1607,0.1598,0.1562,0.1555,0.1592,0.1526,0.1515,0.1436,0.1508,0.1469,0.1466,0.1472,0.1476,0.1479,0.1494,0,0,0,0,0,0,0.1632,0.1631,0.1612,0.1621,0.1618,0.1659,0.1609,0.1606,0.1595,0.1595,0.1553,0.1545,0.1525,0.1442,0.1432,0.1501,0.1463,0.1468,0.1473,0.1478,0.149,0.1498,0.1504,0,0,0,0,0,0.1632,0.1631,0.1612,0.161,0.1601,0.1662,0.1661,0.1651,0.1595,0.1632,0.1534,0.1547,0.1472,0.1436,0.1425,0.1496,0.1466,0.1472,0.1478,0.1487,0.1496,0.1504,0,0,0,0,0,0,0.166,0.163,0.161,0.1607,0.1648,0.1662,0.1653,0.1645,0.1598,0.1545,0.1508,0.1494,0.1469,0.1474,0.1437,0.1524,0.1501,0.1505,0.1513,0.1521,0.1528,0.1544,0.1459,0,0,0,0,0,0.1646,0.1619,0.1636,0.1644,0.1641,0.1637,0.1639,0.1637,0.1604,0.1585,0.1563,0.1524,0.1489,0.1488,0.1464,0.1469,0.154,0.1537,0.1544,0.1549,0.1562,0.17,0.172,0.15,0.15,0.15,0,0,0.1677,0.1639,0.1638,0.1643,0.1638,0.1643,0.1641,0.1646,0.1696,0.1574,0.1592,0.1516,0.1485,0.1492,0.1495,0.1503,0.1658,0.1557,0.1561,0.157,0.1708,0.173,0.1749,0.1504,0.1503,0.1502,0,0,0.1717,0.167,0.1658,0.1648,0.1628,0.1638,0.1642,0.1656,0.1714,0.1715,0.1624,0.1559,0.1579,0.1545,0.1531,0.1565,0.1665,0.1616,0.1683,0.1817,0.1836,0.1854,0.1999,0.2029,0.1651,0.1651,0.1651,0,0.1734,0.1719,0.1686,0.1645,0.1637,0.1633,0.1646,0.1704,0.171,0.1761,0.1746,0.1675,0.1615,0.159,0.1598,0.158,0.1691,0.1637,0.1826,0.1844,0.1862,0.2007,0.204,0.1652,0.1652,0.1652,0.1652,0,0.1739,0.1722,0.1714,0.165,0.1657,0.1667,0.1717,0.1784,0.1823,0.1863,0.1895,0.1791,0.177,0.1757,0.1672,0.176,0.1811,0.179,0.1797,0.1885,0.2032,0.2067,0.1654,0.1654,0.1653,0.1653,0,0,0.1775,0.1735,0.1716,0.1707,0.1647,0.1669,0.1766,0.1882,0.1948,0.1988,0.2091,0.1984,0.1925,0.1902,0.1805,0.1883,0.2061,0.1901,0.1908,0.2035,0.2412,0.2402,0.2439,0.21,0.2106,0.211,0.2474,0,0.1795,0.1777,0.1734,0.1736,0.1747,0.1751,0.1835,0.191,0.2032,0.2137,0.2114,0.2116,0.2002,0.1953,0.2018,0.2017,0.2151,0.1967,0.2318,0.2329,0.2299,0.2477,0.2362,0.2673,0.2508,0.2513,0.2518,0,0.1776,0.178,0.1816,0.1814,0.1808,0.1804,0.1924,0.199,0.2134,0.2241,0.2268,0.2249,0.2265,0.2192,0.2353,0.2261,0.2359,0.2393,0.241,0.2416,0.2382,0.2556,0.2742,0.2662,0.2571,0.2566,0.2563,0,0.1814,0.1812,0.1869,0.1843,0.1851,0.1904,0.1903,0.2017,0.2114,0.2287,0.2364,0.2415,0.2447,0.2567,0.2604,0.2535,0.2846,0.2771,0.2878,0.2879,0.2854,0.2843,0.2987,0.2987,0.2986,0.2985,0.2984,0,0.1802,0.1831,0.1899,0.1886,0.1959,0.1913,0.198,0.2079,0.2171,0.2249,0.2361,0.2456,0.2559,0.271,0.275,0.2934,0.3001,0.2944,0.2991,0.2858,0.2844,0.2825,0.2731,0.2999,0.2996,0.2993,0.2991,0,0.1801,0.1848,0.1913,0.1957,0.1976,0.2003,0.1987,0.2031,0.2153,0.2285,0.2334,0.2566,0.2779,0.2889,0.311,0.3134,0.3209,0.3336,0.317,0.3189,0.3157,0.3066,0.3218,0.3125,0.3544,0.3546,0.3548,0,0.1828,0.1865,0.1947,0.1994,0.201,0.2026,0.2021,0.2059,0.2108,0.2329,0.2398,0.267,0.2851,0.3201,0.3318,0.3515,0.3342,0.351,0.3317,0.3199,0.3135,0.2998,0.2895,0.3321,0.3321,0.3321,0.3321,0,0.1856,0.1881,0.1893,0.2007,0.2038,0.2044,0.204,0.2078,0.2127,0.2272,0.2489,0.2653,0.302,0.3183,0.3447,0.3527,0.3326,0.3514,0.345,0.3038,0.2845,0.2761,0.3042,0.332,0.332,0.332,0.332,0.332,0.1876,0.1889,0.191,0.2002,0.2034,0.2049,0.2014,0.2045,0.2115,0.2263,0.2452,0.2626,0.2906,0.3272,0.3402,0.3477,0.3395,0.336,0.3294,0.3196,0.2984,0.3264,0.3529,0.353,0.3531,0.3532,0.3533,0,0.1891,0.1862,0.1911,0.1972,0.1961,0.2007,0.2009,0.1971,0.2029,0.2171,0.2332,0.2529,0.275,0.2982,0.3208,0.3218,0.3126,0.3152,0.2912,0.2843,0.3184,0.3043,0.314,0.314,0.314,0.314,0.314,0.3141,0.1873,0.1872,0.1868,0.1881,0.1909,0.1865,0.1852,0.1871,0.1917,0.2021,0.2088,0.2227,0.2523,0.2797,0.2923,0.2933,0.276,0.2716,0.2686,0.288,0.2892,0.2903,0.2752,0.2786,0.2785,0.2256,0.2251,0.2248]},{"header":{"parameterUnit":"m.s-1","parameterCategory":2,"la1":30.2991,"la2":30.254,"lo1":-89.0895,"lo2":-89.0444,"dy":0.0017,"dx":0.0017,"nx":28,"ny":28,"refTime":"2023-08-06T03:00:00:Z","depth":"0","parameterNumber":3,"parameterNumberName":"V-component_of_CURRENTS"},"data":[0,0,0,0,0,0,0,0,0,0,0,0,0,0,0,0,0,0,0,0,0,0,0,0,0,0,0,0,0,0,0,0,0,0,0,0,0,0,0,0,0,0,0,0,0,0,0,0,0,0,0,0,0,0,0,0,0,0,0.1322,0.1321,0,0.1151,0.1149,0.1146,0.1012,0.1011,0.1011,0.101,0.0884,0.0881,0.0878,0,0,0,0,0,0,0,0,0,0,0,0,0,0.1221,0.1225,0.1322,0.1321,0.1319,0.1152,0.1149,0.1145,0.1012,0.1011,0.1011,0.101,0.0885,0.0881,0.0877,0,0,0,0,0,0,0,0,0,0,0,0,0,0.1171,0.1226,0.1322,0.124,0.1231,0.1153,0.1148,0.1144,0.1012,0.1011,0.1011,0.101,0.0886,0.0881,0.0877,0.0862,0,0,0.0863,0.0861,0,0,0,0,0,0,0,0,0.1174,0.1173,0.1253,0.1245,0.1236,0.1111,0.1067,0.1056,0.1012,0.1085,0.101,0.101,0.0971,0.0959,0.0914,0.0856,0.0851,0.0863,0.086,0.0858,0.0857,0,0,0,0,0,0,0,0.1178,0.1178,0.1244,0.1252,0.1242,0.1106,0.11,0.1061,0.1027,0.1078,0.1071,0.1068,0.0965,0.0918,0.091,0.0849,0.0863,0.0859,0.0856,0.0855,0.079,0.0791,0,0,0,0,0,0,0.1237,0.1184,0.125,0.124,0.1214,0.111,0.1102,0.1144,0.1026,0.101,0.1068,0.1062,0.0926,0.0915,0.0905,0.0851,0.0858,0.0854,0.0852,0.0789,0.079,0.0791,0,0,0,0,0,0,0.1236,0.1246,0.1257,0.1212,0.1205,0.1116,0.116,0.1141,0.1081,0.1019,0.1002,0.103,0.0925,0.0912,0.0858,0.0846,0.0852,0.0848,0.0788,0.0789,0.0791,0.0761,0,0,0,0,0,0,0.1235,0.1248,0.1225,0.1219,0.1211,0.1233,0.1161,0.1138,0.1086,0.1075,0.0981,0.0969,0.0924,0.0865,0.0853,0.084,0.0845,0.0786,0.0788,0.079,0.0761,0.0762,0.0762,0,0,0,0,0,0.1232,0.1202,0.1226,0.123,0.1209,0.1236,0.1218,0.1141,0.1085,0.1078,0.0994,0.0971,0.087,0.086,0.0847,0.0833,0.0786,0.0788,0.079,0.0761,0.0762,0.0762,0,0,0,0,0,0,0.1165,0.1188,0.1212,0.12,0.1241,0.1217,0.1153,0.114,0.106,0.1009,0.0961,0.0944,0.0895,0.0883,0.0875,0.0829,0.0833,0.0833,0.0816,0.0816,0.0817,0.0825,0.0841,0,0,0,0,0,0.115,0.1129,0.119,0.1192,0.1199,0.1184,0.1154,0.1132,0.1093,0.1052,0.1004,0.0943,0.0896,0.087,0.083,0.0796,0.0797,0.0791,0.0791,0.0792,0.0795,0.0787,0.0786,0.0798,0.0798,0.0798,0,0,0.116,0.114,0.1151,0.1172,0.1168,0.1165,0.116,0.113,0.1129,0.1053,0.0988,0.0934,0.0889,0.084,0.0821,0.0824,0.0791,0.0794,0.0794,0.0797,0.0789,0.0788,0.0786,0.08,0.0799,0.0799,0,0,0.1161,0.1134,0.1133,0.1129,0.1119,0.1104,0.1113,0.1106,0.1097,0.1068,0.0997,0.0937,0.089,0.0838,0.0811,0.0801,0.0791,0.0804,0.0804,0.0796,0.0794,0.0792,0.0792,0.0791,0.0807,0.0807,0.0807,0,0.1172,0.1169,0.1144,0.1119,0.1097,0.1091,0.1102,0.109,0.1069,0.1082,0.1055,0.0949,0.0889,0.0832,0.0808,0.0796,0.0799,0.0792,0.0793,0.0792,0.079,0.0791,0.0789,0.0806,0.0806,0.0806,0.0806,0,0.1185,0.1157,0.1142,0.1113,0.1086,0.108,0.1092,0.1075,0.1053,0.1068,0.1041,0.0953,0.0911,0.0873,0.0818,0.0781,0.0788,0.0787,0.0782,0.0787,0.0788,0.0787,0.0804,0.0804,0.0805,0.0805,0,0,0.1218,0.1193,0.1156,0.1165,0.1068,0.1078,0.1047,0.1081,0.1084,0.106,0.1092,0.0969,0.0945,0.0913,0.0845,0.0802,0.0762,0.0781,0.0781,0.0765,0.0753,0.0745,0.0743,0.0759,0.0758,0.0758,0.0756,0,0.1242,0.1265,0.1185,0.116,0.1171,0.1104,0.1073,0.1067,0.1086,0.1107,0.1067,0.1046,0.0967,0.0922,0.0873,0.0793,0.076,0.0764,0.0766,0.0766,0.0744,0.0741,0.0757,0.0755,0.0755,0.0755,0.0755,0,0.1186,0.1215,0.1262,0.1213,0.1205,0.1172,0.1124,0.1111,0.112,0.1146,0.1137,0.1116,0.1044,0.0985,0.0879,0.0888,0.082,0.0756,0.0756,0.0757,0.0756,0.0754,0.0754,0.0643,0.0754,0.0754,0.0754,0,0.1163,0.119,0.1252,0.1233,0.1207,0.1201,0.1167,0.1132,0.1155,0.1191,0.1218,0.1163,0.1157,0.1051,0.0929,0.0904,0.0833,0.0799,0.0735,0.0734,0.0754,0.0755,0.0634,0.0737,0.0737,0.0737,0.0737,0,0.1104,0.1116,0.128,0.1271,0.1303,0.1245,0.1232,0.1221,0.1228,0.1258,0.1249,0.1277,0.1173,0.1128,0.0982,0.0872,0.0894,0.0734,0.0731,0.0746,0.0747,0.0657,0.0566,0.0737,0.0737,0.0737,0.0737,0,0.0996,0.1103,0.1165,0.1251,0.1278,0.1284,0.1278,0.1283,0.1293,0.1345,0.1359,0.1396,0.1337,0.1221,0.1081,0.0972,0.0786,0.0789,0.0817,0.0815,0.0628,0.0536,0.0467,0.0487,0.0711,0.071,0.071,0,0.1007,0.1033,0.116,0.1226,0.127,0.1307,0.1296,0.1305,0.1335,0.1406,0.1444,0.1459,0.1482,0.1317,0.1111,0.0912,0.0803,0.0791,0.0725,0.0616,0.0511,0.0503,0.0525,0.0744,0.0744,0.0745,0.0745,0,0.0996,0.101,0.1064,0.1199,0.1262,0.1324,0.1361,0.1402,0.1408,0.1496,0.161,0.1652,0.1532,0.1384,0.1139,0.0982,0.0739,0.0785,0.0667,0.0516,0.0505,0.0526,0.075,0.0745,0.0745,0.0745,0.0745,0.0745,0.1007,0.1024,0.109,0.119,0.1271,0.1361,0.1395,0.1475,0.1557,0.1692,0.1733,0.1801,0.1597,0.1284,0.1085,0.0726,0.0735,0.0596,0.0493,0.0498,0.0506,0.073,0.072,0.072,0.072,0.072,0.072,0,0.1048,0.1035,0.1112,0.122,0.1278,0.1336,0.1441,0.1508,0.1639,0.1758,0.1889,0.1835,0.1534,0.121,0.0732,0.0471,0.0466,0.0337,0.0312,0.0352,0.0543,0.0532,0.0489,0.0489,0.0489,0.0489,0.0489,0.0489,0.105,0.1088,0.1088,0.121,0.1283,0.1378,0.1447,0.1603,0.1711,0.1904,0.1955,0.2043,0.1886,0.0913,0.0337,0.0212,0.0074,0.0025,-0.0,0.0067,0.0084,0.01,0.0071,-0.0069,-0.007,-0.0076,-0.0077,-0.0079]}],[{"header":{"parameterUnit":"m.s-1","parameterCategory":2,"la1":30.2991,"la2":30.254,"lo1":-89.0895,"lo2":-89.0444,"dy":0.0017,"dx":0.0017,"nx":28,"ny":28,"refTime":"2023-08-06T03:00:00:Z","depth":"2","parameterNumber":2,"parameterNumberName":"U-component_of_CURRENTS"},"data":[0,0,0,0,0,0,0,0,0,0,0,0,0,0,0,0,0,0,0,0,0,0,0,0,0,0,0,0,0,0,0,0,0,0,0,0,0,0,0,0,0,0,0,0,0,0,0,0,0,0,0,0,0,0,0,0,0,0,0.0564,0.0571,0,0.0747,0.0745,0.0743,0.0927,0.0934,0.0942,0.0949,0.106,0.1056,0.1052,0,0,0,0,0,0,0,0,0,0,0,0,0,0.0754,0.0742,0.0564,0.0571,0.0579,0.0748,0.0745,0.0742,0.0925,0.0935,0.0944,0.0952,0.1061,0.1056,0.1051,0,0,0,0,0,0,0,0,0,0,0,0,0,0.0724,0.0738,0.0563,0.0731,0.0752,0.0748,0.0745,0.0741,0.0924,0.0935,0.0946,0.0957,0.1062,0.1057,0.1051,0.0787,0,0,0.1032,0.1029,0,0,0,0,0,0,0,0,0.0724,0.0709,0.0699,0.072,0.0744,0.0875,0.0857,0.0772,0.0921,0.08,0.0949,0.0962,0.1019,0.1016,0.0948,0.0792,0.0797,0.1031,0.1028,0.1025,0.1023,0,0,0,0,0,0,0,0.0725,0.0706,0.058,0.0707,0.0735,0.0934,0.0931,0.0839,0.0799,0.0811,0.0839,0.0943,0.1024,0.0953,0.0953,0.0798,0.1032,0.1026,0.1022,0.102,0.0744,0.0741,0,0,0,0,0,0,0.0778,0.0702,0.0576,0.0592,0.0825,0.0923,0.0919,0.0776,0.0803,0.0835,0.0934,0.0953,0.0958,0.096,0.0958,0.1081,0.1025,0.1019,0.1016,0.0748,0.0744,0.074,0,0,0,0,0,0,0.0776,0.0753,0.0569,0.0714,0.0712,0.091,0.0748,0.0775,0.0811,0.0908,0.0929,0.0966,0.0967,0.0967,0.0949,0.1073,0.1017,0.1011,0.0752,0.0747,0.0742,0.1051,0,0,0,0,0,0,0.0775,0.0743,0.0782,0.0706,0.0707,0.0669,0.0744,0.0772,0.0881,0.0906,0.0937,0.0954,0.0976,0.0958,0.0943,0.1064,0.1006,0.0757,0.075,0.0743,0.1045,0.1057,0.1066,0,0,0,0,0,0.0776,0.0833,0.0772,0.0774,0.0696,0.0677,0.0687,0.0841,0.0872,0.0898,0.0895,0.0958,0.0907,0.0948,0.0932,0.1055,0.076,0.0752,0.0744,0.1041,0.1054,0.1066,0,0,0,0,0,0,0.0989,0.0857,0.0793,0.081,0.0778,0.0734,0.088,0.0844,0.0835,0.092,0.0884,0.0896,0.0966,0.0866,0.0913,0.0928,0.0849,0.0837,0.108,0.1092,0.1103,0.1075,0.1001,0,0,0,0,0,0.1016,0.097,0.0866,0.0881,0.0877,0.0823,0.0882,0.0923,0.0896,0.091,0.0839,0.0821,0.0874,0.0881,0.0866,0.0806,0.0761,0.0861,0.0872,0.0883,0.0831,0.0833,0.0845,0.0713,0.0713,0.0713,0,0,0.1033,0.1049,0.0975,0.0927,0.0907,0.0842,0.0874,0.0975,0.0897,0.0913,0.0783,0.0869,0.0865,0.0899,0.0911,0.086,0.0908,0.0873,0.0886,0.0824,0.0826,0.0841,0.0854,0.0707,0.0708,0.0709,0,0,0.1076,0.1088,0.1013,0.1014,0.1095,0.1043,0.1056,0.0941,0.0913,0.0784,0.0868,0.0964,0.0828,0.0925,0.0956,0.0942,0.0991,0.0977,0.1005,0.1014,0.1028,0.104,0.1099,0.1113,0.0956,0.0957,0.0957,0,0.1076,0.1057,0.1023,0.1022,0.1114,0.1085,0.1052,0.0941,0.0817,0.0838,0.0793,0.0808,0.0833,0.1,0.1042,0.0992,0.1013,0.1018,0.1046,0.1055,0.1062,0.1118,0.1131,0.0971,0.0969,0.0968,0.0967,0,0.1031,0.1084,0.1114,0.1006,0.1038,0.1117,0.0972,0.0887,0.0841,0.0814,0.0904,0.0889,0.0944,0.0998,0.1023,0.1154,0.1169,0.1116,0.1066,0.1098,0.1151,0.1159,0.0991,0.0986,0.0982,0.0978,0,0,0.0918,0.0986,0.1075,0.103,0.113,0.1073,0.0991,0.096,0.0974,0.0858,0.0881,0.0986,0.1106,0.1128,0.1224,0.1206,0.1341,0.1193,0.1187,0.1341,0.1433,0.1213,0.1201,0.1351,0.1351,0.1351,0.1493,0,0.0921,0.0887,0.1031,0.1022,0.0948,0.1021,0.0976,0.0974,0.0955,0.092,0.102,0.1114,0.112,0.1257,0.1255,0.1339,0.1355,0.1309,0.1289,0.1287,0.1164,0.1196,0.1202,0.1305,0.15,0.1501,0.1502,0,0.0986,0.0953,0.09,0.1003,0.101,0.0961,0.1024,0.101,0.1079,0.1093,0.1221,0.1326,0.143,0.133,0.1431,0.1431,0.1435,0.142,0.1426,0.1087,0.1074,0.1266,0.131,0.1513,0.1512,0.1511,0.1511,0,0.0996,0.1007,0.0971,0.0984,0.0962,0.0942,0.0973,0.1069,0.1153,0.1206,0.1306,0.1464,0.1484,0.1518,0.1513,0.1527,0.1518,0.1535,0.1337,0.1327,0.1235,0.1211,0.1522,0.1521,0.1521,0.1521,0.152,0,0.1128,0.1158,0.0881,0.0869,0.0902,0.0868,0.1021,0.1055,0.1168,0.1343,0.1425,0.1482,0.1511,0.1545,0.1558,0.1449,0.1568,0.1323,0.1319,0.134,0.1324,0.1378,0.136,0.1526,0.1525,0.1524,0.1523,0,0.1262,0.1164,0.1038,0.0875,0.0914,0.0865,0.1068,0.1124,0.1225,0.1374,0.1421,0.1499,0.1532,0.1567,0.1568,0.1447,0.1412,0.1334,0.1361,0.1349,0.1241,0.1236,0.1201,0.1193,0.1187,0.1182,0.1178,0,0.122,0.1156,0.1042,0.0985,0.0926,0.0912,0.1042,0.1166,0.1179,0.137,0.1374,0.1471,0.1401,0.1314,0.1239,0.121,0.1295,0.1127,0.1065,0.1193,0.1196,0.12,0.1202,0.1164,0.116,0.1157,0.1154,0,0.1139,0.1171,0.1101,0.1026,0.0997,0.1074,0.1096,0.113,0.1258,0.1322,0.1313,0.1276,0.1174,0.108,0.0951,0.0912,0.1137,0.1042,0.1214,0.1156,0.1143,0.1149,0.1158,0.1124,0.1127,0.1129,0.1131,0.1132,0.1063,0.1053,0.1042,0.0954,0.1036,0.1074,0.1119,0.104,0.1128,0.1129,0.1141,0.1075,0.1014,0.0792,0.0756,0.0784,0.0794,0.0833,0.0853,0.0874,0.0755,0.072,0.061,0.061,0.061,0.061,0.061,0,0.0831,0.0982,0.0956,0.0892,0.0978,0.1112,0.1115,0.1009,0.0955,0.1033,0.0975,0.0857,0.0713,0.0775,0.0746,0.0588,0.0644,0.0615,0.0823,0.0848,0.0872,0.0762,0.0616,0.0616,0.0616,0.0616,0,0,0.0804,0.0782,0.0815,0.0811,0.0899,0.1048,0.1075,0.0887,0.0842,0.0741,0.0826,0.0767,0.076,0.0768,0.0695,0.073,0.079,0.0665,0.0662,0.0941,0.0967,0.0984,0.0836,0,0,0,0,0]},{"header":{"parameterUnit":"m.s-1","parameterCategory":2,"la1":30.2991,"la2":30.254,"lo1":-89.0895,"lo2":-89.0444,"dy":0.0017,"dx":0.0017,"nx":28,"ny":28,"refTime":"2023-08-06T03:00:00:Z","depth":"2","parameterNumber":3,"parameterNumberName":"V-component_of_CURRENTS"},"data":[0,0,0,0,0,0,0,0,0,0,0,0,0,0,0,0,0,0,0,0,0,0,0,0,0,0,0,0,0,0,0,0,0,0,0,0,0,0,0,0,0,0,0,0,0,0,0,0,0,0,0,0,0,0,0,0,0,0,0.0464,0.0469,0,0.0514,0.051,0.0507,0.0524,0.0529,0.0533,0.0537,0.0553,0.0549,0.0546,0,0,0,0,0,0,0,0,0,0,0,0,0,0.0495,0.0489,0.0464,0.0469,0.0474,0.0514,0.051,0.0506,0.0524,0.0529,0.0534,0.0539,0.0554,0.055,0.0546,0,0,0,0,0,0,0,0,0,0,0,0,0,0.0459,0.0487,0.0463,0.0524,0.0534,0.0515,0.051,0.0505,0.0523,0.0529,0.0536,0.0542,0.0556,0.055,0.0545,0.0381,0,0,0.0528,0.0526,0,0,0,0,0,0,0,0,0.0461,0.0451,0.051,0.0521,0.0532,0.0563,0.053,0.0479,0.0521,0.0474,0.0537,0.0545,0.0581,0.0573,0.0498,0.0382,0.0382,0.0528,0.0525,0.0522,0.0521,0,0,0,0,0,0,0,0.0463,0.0451,0.0433,0.0516,0.053,0.0592,0.0586,0.0517,0.0451,0.0479,0.0493,0.0575,0.058,0.0503,0.05,0.0383,0.0528,0.0523,0.052,0.0518,0.0282,0.0279,0,0,0,0,0,0,0.0542,0.0451,0.0433,0.044,0.0568,0.0589,0.0581,0.0506,0.0453,0.0466,0.0569,0.0577,0.0509,0.0506,0.0501,0.053,0.0522,0.0517,0.0514,0.0285,0.0282,0.0278,0,0,0,0,0,0,0.0538,0.0532,0.0432,0.0498,0.0496,0.0585,0.0498,0.0505,0.048,0.0532,0.0535,0.0554,0.0514,0.0509,0.0479,0.0524,0.0515,0.051,0.0289,0.0284,0.028,0.0445,0,0,0,0,0,0,0.0535,0.0525,0.0547,0.0496,0.0497,0.0462,0.0498,0.0503,0.0543,0.0551,0.0517,0.0523,0.0519,0.0486,0.0473,0.0516,0.0506,0.0293,0.0287,0.0281,0.0443,0.0446,0.0449,0,0,0,0,0,0.0533,0.0546,0.0541,0.055,0.0498,0.0468,0.0464,0.0524,0.0537,0.0515,0.0499,0.0526,0.0442,0.0479,0.0464,0.0508,0.0295,0.0288,0.0282,0.0442,0.0446,0.0449,0,0,0,0,0,0,0.0589,0.0552,0.0546,0.0549,0.0538,0.0492,0.0551,0.0522,0.047,0.0525,0.0479,0.048,0.0496,0.0421,0.0463,0.0407,0.0373,0.0363,0.05,0.0503,0.0506,0.0495,0.0501,0,0,0,0,0,0.0607,0.058,0.0556,0.0561,0.0568,0.0532,0.0553,0.0572,0.0537,0.0521,0.0425,0.0392,0.043,0.0412,0.0387,0.0316,0.025,0.0324,0.0327,0.0332,0.0301,0.0222,0.0219,0.0256,0.0256,0.0256,0,0,0.0575,0.0629,0.0571,0.0577,0.0567,0.0532,0.0545,0.0594,0.049,0.0532,0.0327,0.0412,0.0417,0.04,0.0392,0.0357,0.0287,0.0323,0.0329,0.0295,0.0215,0.0213,0.021,0.0252,0.0253,0.0253,0,0,0.0558,0.0587,0.0543,0.0565,0.0662,0.0625,0.0636,0.0536,0.0433,0.0295,0.0369,0.045,0.0291,0.0371,0.0398,0.0362,0.0336,0.0363,0.0351,0.0278,0.0276,0.0274,0.0222,0.0213,0.0333,0.0334,0.0334,0,0.0541,0.0542,0.0537,0.0574,0.0643,0.0644,0.063,0.0477,0.0345,0.0307,0.0248,0.0254,0.0273,0.0408,0.042,0.0385,0.0332,0.0375,0.0292,0.0287,0.0282,0.0228,0.0217,0.0341,0.034,0.0339,0.0339,0,0.0496,0.0541,0.056,0.0555,0.0569,0.0626,0.049,0.0336,0.0236,0.0201,0.0211,0.0218,0.0265,0.0301,0.035,0.0397,0.0373,0.0351,0.0313,0.029,0.0232,0.0218,0.0351,0.0348,0.0346,0.0345,0,0,0.0403,0.0472,0.0546,0.0543,0.0634,0.061,0.0413,0.0329,0.0266,0.0129,0.0082,0.0173,0.0306,0.0335,0.0446,0.038,0.0342,0.0345,0.0338,0.0344,0.019,0.0249,0.0238,0.032,0.0317,0.0315,0.0182,0,0.041,0.0436,0.0544,0.0559,0.0494,0.0516,0.0367,0.0306,0.0186,0.0085,0.0176,0.025,0.0275,0.0408,0.0346,0.0385,0.0301,0.0379,0.016,0.0153,0.0252,0.0222,0.0174,0.0057,0.0167,0.0165,0.0163,0,0.0443,0.0435,0.0429,0.0495,0.0508,0.0507,0.0412,0.0319,0.0245,0.0155,0.0247,0.036,0.0429,0.0367,0.0297,0.0352,0.0256,0.0203,0.0197,0.0172,0.0183,0.0079,0.0025,0.0137,0.0139,0.0141,0.0143,0,0.0387,0.0462,0.0464,0.0493,0.0469,0.0435,0.0447,0.0369,0.0331,0.0267,0.0308,0.0389,0.0425,0.0315,0.0261,0.0272,0.0092,0.0088,0.0033,0.0037,-0.0095,-0.0097,-0.0075,-0.0075,-0.0074,-0.0074,-0.0074,0,0.0465,0.0498,0.0406,0.0408,0.0421,0.0417,0.0481,0.0378,0.038,0.0458,0.045,0.0454,0.0391,0.0348,0.0244,0.0111,0.0065,0.0015,-0.0003,-0.0036,-0.0032,-0.0049,-0.0044,-0.0079,-0.0078,-0.0077,-0.0076,0,0.0499,0.0481,0.0391,0.0331,0.0391,0.0356,0.0546,0.0545,0.0502,0.0532,0.0565,0.05,0.0421,0.0375,0.0188,0.0101,-0.0025,-0.0083,-0.0089,-0.0104,-0.0034,-0.002,-0.0156,-0.0155,-0.0155,-0.0154,-0.0154,0,0.0472,0.0419,0.0376,0.0353,0.0375,0.0408,0.0504,0.055,0.0537,0.0545,0.0542,0.0538,0.0459,0.0257,0.012,-0.0032,-0.0037,-0.0167,-0.0159,-0.0043,-0.0048,-0.0035,-0.0022,-0.0274,-0.0275,-0.0276,-0.0276,0,0.0381,0.041,0.0399,0.0333,0.0371,0.0495,0.0571,0.0589,0.0629,0.0636,0.0571,0.0553,0.0369,0.0191,0.0031,-0.008,-0.012,-0.0177,-0.0115,-0.0205,-0.0154,-0.0157,-0.0143,-0.028,-0.028,-0.0279,-0.0279,-0.0279,0.0321,0.0328,0.0345,0.0303,0.0392,0.0498,0.0591,0.0634,0.0704,0.0679,0.0587,0.0527,0.0269,0.0078,-0.0085,-0.0164,-0.0159,-0.0227,-0.0227,-0.0227,-0.0175,-0.0122,-0.0233,-0.0232,-0.0232,-0.0231,-0.0231,0,0.0162,0.0312,0.0322,0.0301,0.0407,0.0517,0.0634,0.0688,0.0748,0.0715,0.067,0.0418,0.0194,0.0038,-0.0121,-0.027,-0.0305,-0.0276,-0.0322,-0.0318,-0.0315,-0.0269,-0.0351,-0.0351,-0.0351,-0.0351,0,0,0.0151,0.0173,0.0239,0.0305,0.0408,0.0627,0.0718,0.0774,0.0786,0.073,0.07,0.0511,0.0258,0.0099,-0.0134,-0.0194,-0.0195,-0.0204,-0.0105,-0.013,-0.0123,-0.03,-0.0225,0,0,0,0,0]}],[{"header":{"parameterUnit":"m.s-1","parameterCategory":2,"la1":30.2991,"la2":30.254,"lo1":-89.0895,"lo2":-89.0444,"dy":0.0017,"dx":0.0017,"nx":28,"ny":28,"refTime":"2023-08-06T03:00:00:Z","depth":"4","parameterNumber":2,"parameterNumberName":"U-component_of_CURRENTS"},"data":[0,0,0,0,0,0,0,0,0,0,0,0,0,0,0,0,0,0,0,0,0,0,0,0,0,0,0,0,0,0,0,0,0,0,0,0,0,0,0,0,0,0,0,0,0,0,0,0,0,0,0,0,0,0,0,0,0,0,-0.0355,-0.0356,0,-0.0408,-0.0408,-0.0409,-0.0444,-0.0444,-0.0445,-0.0445,-0.0541,-0.0543,-0.0545,0,0,0,0,0,0,0,0,0,0,0,0,0,-0.0335,-0.0335,-0.0355,-0.0356,-0.0357,-0.0407,-0.0408,-0.0409,-0.0444,-0.0444,-0.0445,-0.0445,-0.054,-0.0542,-0.0545,0,0,0,0,0,0,0,0,0,0,0,0,0,-0.036,-0.0335,-0.0355,-0.0381,-0.0384,-0.0407,-0.0408,-0.0409,-0.0444,-0.0444,-0.0445,-0.0445,-0.0539,-0.0542,-0.0545,-0.0556,0,0,-0.0556,-0.0557,0,0,0,0,0,0,0,0,-0.0359,-0.0361,-0.0377,-0.038,-0.0383,-0.0421,-0.0436,-0.0461,-0.0444,-0.042,-0.0445,-0.0446,-0.0505,-0.0511,-0.0518,-0.056,-0.0564,-0.0556,-0.0558,-0.0559,-0.056,0,0,0,0,0,0,0,-0.0357,-0.0359,-0.0375,-0.0377,-0.0381,-0.0407,-0.0411,-0.0441,-0.0459,-0.0422,-0.0425,-0.0432,-0.0507,-0.0514,-0.052,-0.0566,-0.0556,-0.0559,-0.0561,-0.0562,-0.07,-0.0702,0,0,0,0,0,0,-0.0349,-0.0357,-0.0373,-0.0377,-0.0373,-0.0407,-0.0411,-0.0407,-0.0458,-0.0466,-0.0432,-0.0434,-0.0508,-0.0516,-0.0524,-0.0612,-0.0559,-0.0563,-0.0564,-0.0699,-0.0701,-0.0703,0,0,0,0,0,0,-0.0348,-0.0349,-0.0371,-0.037,-0.0374,-0.0406,-0.0402,-0.0408,-0.0428,-0.0465,-0.0474,-0.0448,-0.0509,-0.0519,-0.0591,-0.0614,-0.0564,-0.0567,-0.0697,-0.0699,-0.0702,-0.0743,0,0,0,0,0,0,-0.0347,-0.0348,-0.0361,-0.0369,-0.0374,-0.0387,-0.0402,-0.0409,-0.0432,-0.0435,-0.0481,-0.049,-0.051,-0.0586,-0.0595,-0.0617,-0.057,-0.0695,-0.0698,-0.0701,-0.0739,-0.0746,-0.0752,0,0,0,0,0,-0.0346,-0.0369,-0.0361,-0.0364,-0.0384,-0.0387,-0.0392,-0.0416,-0.0432,-0.0437,-0.0497,-0.0489,-0.0611,-0.0591,-0.06,-0.0624,-0.0693,-0.0697,-0.0701,-0.0736,-0.0745,-0.0752,0,0,0,0,0,0,-0.0363,-0.0375,-0.0366,-0.0389,-0.0383,-0.0393,-0.0424,-0.0421,-0.0469,-0.0494,-0.052,-0.0534,-0.0598,-0.0611,-0.0588,-0.0674,-0.0646,-0.0652,-0.067,-0.0678,-0.0685,-0.0659,-0.0572,0,0,0,0,0,-0.0369,-0.0386,-0.0383,-0.0393,-0.0406,-0.0411,-0.0424,-0.0429,-0.0464,-0.0484,-0.0518,-0.0568,-0.0617,-0.0649,-0.0685,-0.074,-0.0716,-0.0758,-0.0765,-0.077,-0.0756,-0.0784,-0.0792,-0.0715,-0.0715,-0.0715,0,0,-0.0365,-0.0384,-0.0386,-0.0398,-0.0411,-0.0431,-0.0422,-0.0445,-0.044,-0.049,-0.0533,-0.059,-0.0636,-0.0701,-0.0729,-0.0719,-0.0772,-0.0775,-0.0779,-0.0762,-0.0789,-0.0796,-0.0803,-0.0717,-0.0717,-0.0717,0,0,-0.0375,-0.0398,-0.0416,-0.0432,-0.0456,-0.0461,-0.0465,-0.0482,-0.0474,-0.0518,-0.056,-0.0636,-0.0697,-0.0742,-0.077,-0.0832,-0.0802,-0.0847,-0.0867,-0.0896,-0.0902,-0.0907,-0.0845,-0.0844,-0.0856,-0.0857,-0.0857,0,-0.0377,-0.0394,-0.0417,-0.0453,-0.0474,-0.0475,-0.0493,-0.0485,-0.0514,-0.051,-0.0537,-0.0664,-0.0709,-0.0786,-0.0824,-0.0843,-0.0831,-0.0834,-0.0903,-0.0908,-0.0912,-0.0848,-0.0847,-0.0859,-0.0859,-0.0858,-0.0858,0,-0.0393,-0.0424,-0.0448,-0.0488,-0.0512,-0.0531,-0.0529,-0.0534,-0.0544,-0.0537,-0.0599,-0.0686,-0.0759,-0.0796,-0.0838,-0.0903,-0.0871,-0.0902,-0.0877,-0.0922,-0.0851,-0.0849,-0.0862,-0.0862,-0.0861,-0.086,0,0,-0.0365,-0.0436,-0.0453,-0.0473,-0.0535,-0.0548,-0.0555,-0.0543,-0.0534,-0.0584,-0.0584,-0.0714,-0.0762,-0.0799,-0.0868,-0.0915,-0.0939,-0.0936,-0.0937,-0.0861,-0.0945,-0.0831,-0.0816,-0.1001,-0.1002,-0.1003,-0.0867,0,-0.0366,-0.0413,-0.0464,-0.0513,-0.0535,-0.0568,-0.0567,-0.0567,-0.0561,-0.0561,-0.0624,-0.0678,-0.0754,-0.0824,-0.088,-0.0943,-0.0943,-0.0968,-0.0923,-0.0919,-0.0804,-0.0815,-0.1006,-0.0865,-0.0864,-0.0864,-0.0864,0,-0.0381,-0.0405,-0.0443,-0.0502,-0.052,-0.0565,-0.058,-0.0576,-0.0566,-0.0568,-0.0634,-0.0662,-0.0759,-0.0807,-0.0898,-0.092,-0.0922,-0.0949,-0.0945,-0.0821,-0.0803,-0.0823,-0.0859,-0.0859,-0.086,-0.086,-0.086,0,-0.0347,-0.041,-0.0431,-0.0459,-0.0517,-0.055,-0.0587,-0.0592,-0.0571,-0.0589,-0.0591,-0.0677,-0.0731,-0.0793,-0.083,-0.0887,-0.0862,-0.0939,-0.0803,-0.0791,-0.0915,-0.0911,-0.0939,-0.0939,-0.0939,-0.094,-0.094,0,-0.0352,-0.0379,-0.0423,-0.0452,-0.0469,-0.0543,-0.0573,-0.0585,-0.0603,-0.058,-0.0619,-0.0604,-0.0743,-0.0726,-0.0778,-0.0753,-0.0811,-0.0779,-0.0761,-0.0929,-0.0929,-0.0909,-0.0908,-0.0934,-0.0935,-0.0937,-0.0937,0,-0.0349,-0.0367,-0.0394,-0.045,-0.0465,-0.0498,-0.058,-0.0579,-0.0608,-0.0579,-0.0591,-0.057,-0.057,-0.0602,-0.0654,-0.0664,-0.0663,-0.0611,-0.069,-0.0682,-0.0581,-0.0584,-0.0493,-0.0489,-0.0484,-0.0481,-0.0478,0,-0.0349,-0.0357,-0.0393,-0.0391,-0.0438,-0.0492,-0.0509,-0.0574,-0.0569,-0.0534,-0.0495,-0.0461,-0.0447,-0.0382,-0.0455,-0.0461,-0.0475,-0.0437,-0.0615,-0.0549,-0.0542,-0.0551,-0.0559,-0.0471,-0.047,-0.0469,-0.0468,0,-0.0336,-0.0355,-0.0378,-0.0371,-0.04,-0.0413,-0.0458,-0.0442,-0.048,-0.0502,-0.0395,-0.0354,-0.0292,-0.0316,-0.0274,-0.0301,-0.0478,-0.0396,-0.0408,-0.0576,-0.0522,-0.052,-0.0533,-0.0454,-0.0456,-0.0457,-0.0458,0,-0.033,-0.0328,-0.0344,-0.0353,-0.0346,-0.0317,-0.0362,-0.0357,-0.036,-0.0342,-0.029,-0.0248,-0.026,-0.0218,-0.019,-0.0195,-0.0261,-0.0307,-0.0326,-0.0342,-0.0366,-0.028,-0.01,0,0,0,0,0,-0.0314,-0.0305,-0.0309,-0.0292,-0.0285,-0.0282,-0.0294,-0.0335,-0.0358,-0.0274,-0.0295,-0.023,-0.018,-0.0143,-0.0133,-0.0149,-0.0266,-0.0135,-0.0331,-0.0374,-0.0391,-0.0438,0,0,0,0,0,0,-0.0297,-0.029,-0.03,-0.0241,-0.0212,-0.0194,-0.0194,-0.0214,-0.0182,-0.0203,-0.0173,-0.0208,-0.0163,-0.0182,-0.0121,-0.0122,-0.024,-0.0136,-0.0135,-0.0365,-0.038,-0.0393,-0.0448,0,0,0,0,0]},{"header":{"parameterUnit":"m.s-1","parameterCategory":2,"la1":30.2991,"la2":30.254,"lo1":-89.0895,"lo2":-89.0444,"dy":0.0017,"dx":0.0017,"nx":28,"ny":28,"refTime":"2023-08-06T03:00:00:Z","depth":"4","parameterNumber":3,"parameterNumberName":"V-component_of_CURRENTS"},"data":[0,0,0,0,0,0,0,0,0,0,0,0,0,0,0,0,0,0,0,0,0,0,0,0,0,0,0,0,0,0,0,0,0,0,0,0,0,0,0,0,0,0,0,0,0,0,0,0,0,0,0,0,0,0,0,0,0,0,-0.0455,-0.0455,0,-0.0476,-0.0477,-0.0477,-0.0475,-0.0475,-0.0475,-0.0474,-0.0503,-0.0504,-0.0505,0,0,0,0,0,0,0,0,0,0,0,0,0,-0.0483,-0.0482,-0.0455,-0.0455,-0.0456,-0.0476,-0.0477,-0.0477,-0.0475,-0.0475,-0.0474,-0.0474,-0.0502,-0.0504,-0.0505,0,0,0,0,0,0,0,0,0,0,0,0,0,-0.0484,-0.0481,-0.0455,-0.0457,-0.0457,-0.0476,-0.0477,-0.0477,-0.0475,-0.0475,-0.0474,-0.0474,-0.0502,-0.0503,-0.0505,-0.0526,0,0,-0.051,-0.0511,0,0,0,0,0,0,0,0,-0.0484,-0.0483,-0.0456,-0.0457,-0.0457,-0.0472,-0.0497,-0.0494,-0.0476,-0.0469,-0.0474,-0.0474,-0.0493,-0.0496,-0.0501,-0.0528,-0.0529,-0.051,-0.0511,-0.0512,-0.0512,0,0,0,0,0,0,0,-0.0484,-0.0483,-0.0464,-0.0457,-0.0457,-0.048,-0.0479,-0.0497,-0.0485,-0.047,-0.0469,-0.0471,-0.0493,-0.05,-0.0502,-0.0529,-0.051,-0.0512,-0.0513,-0.0513,-0.0621,-0.0622,0,0,0,0,0,0,-0.0477,-0.0482,-0.0463,-0.0465,-0.0469,-0.048,-0.0479,-0.0468,-0.0484,-0.0486,-0.0472,-0.0471,-0.0497,-0.05,-0.0503,-0.0551,-0.0512,-0.0514,-0.0514,-0.0619,-0.0621,-0.0623,0,0,0,0,0,0,-0.0477,-0.0475,-0.0463,-0.0475,-0.0474,-0.048,-0.0468,-0.0469,-0.0489,-0.0486,-0.0487,-0.0492,-0.0497,-0.0501,-0.0531,-0.0551,-0.0514,-0.0516,-0.0617,-0.062,-0.0622,-0.0632,0,0,0,0,0,0,-0.0478,-0.0474,-0.049,-0.0473,-0.0473,-0.0465,-0.0469,-0.047,-0.049,-0.049,-0.0504,-0.0505,-0.0497,-0.0529,-0.0533,-0.0552,-0.0517,-0.0614,-0.0618,-0.0621,-0.063,-0.0635,-0.064,0,0,0,0,0,-0.0479,-0.0481,-0.049,-0.049,-0.0486,-0.0465,-0.0467,-0.047,-0.0492,-0.049,-0.0515,-0.0505,-0.0554,-0.0531,-0.0536,-0.0556,-0.0613,-0.0617,-0.0621,-0.0627,-0.0634,-0.064,0,0,0,0,0,0,-0.0476,-0.0481,-0.049,-0.0489,-0.0479,-0.0464,-0.0473,-0.0485,-0.0506,-0.0519,-0.0524,-0.0527,-0.0567,-0.0567,-0.0542,-0.0602,-0.0584,-0.059,-0.0588,-0.0594,-0.0599,-0.0574,-0.0518,0,0,0,0,0,-0.0491,-0.0505,-0.0494,-0.0491,-0.0491,-0.0494,-0.05,-0.0498,-0.0504,-0.0514,-0.0536,-0.0564,-0.0587,-0.0593,-0.0616,-0.0642,-0.0636,-0.0663,-0.0668,-0.0672,-0.0658,-0.0702,-0.0709,-0.0637,-0.0637,-0.0637,0,0,-0.0483,-0.0492,-0.0497,-0.0496,-0.0493,-0.0499,-0.0495,-0.0494,-0.0504,-0.0516,-0.0559,-0.0588,-0.0603,-0.0633,-0.0651,-0.0633,-0.0685,-0.0678,-0.0681,-0.0664,-0.0707,-0.0714,-0.072,-0.064,-0.0639,-0.0639,0,0,-0.0469,-0.0486,-0.0497,-0.0502,-0.0509,-0.0511,-0.0516,-0.0524,-0.0531,-0.0562,-0.0589,-0.0622,-0.0662,-0.067,-0.0678,-0.0727,-0.0721,-0.0755,-0.0745,-0.0788,-0.0794,-0.0798,-0.0768,-0.077,-0.0745,-0.0745,-0.0745,0,-0.047,-0.0475,-0.0491,-0.0504,-0.0514,-0.0521,-0.0526,-0.0533,-0.0557,-0.0573,-0.0574,-0.0658,-0.0669,-0.0702,-0.0716,-0.0734,-0.0744,-0.0714,-0.0792,-0.0797,-0.0802,-0.077,-0.0772,-0.0746,-0.0746,-0.0746,-0.0746,0,-0.0462,-0.0479,-0.0478,-0.051,-0.0524,-0.052,-0.0534,-0.0565,-0.059,-0.0599,-0.0647,-0.0665,-0.071,-0.0727,-0.0728,-0.0779,-0.0769,-0.0801,-0.0767,-0.0809,-0.0773,-0.0775,-0.0748,-0.0747,-0.0747,-0.0747,0,0,-0.0442,-0.0468,-0.0481,-0.0497,-0.0529,-0.0535,-0.0566,-0.0584,-0.0618,-0.0639,-0.0668,-0.0704,-0.0728,-0.074,-0.0762,-0.0781,-0.0807,-0.0804,-0.0806,-0.0754,-0.0865,-0.0802,-0.0797,-0.0873,-0.0874,-0.0876,-0.0813,0,-0.0433,-0.0459,-0.0482,-0.0511,-0.0519,-0.0555,-0.0578,-0.061,-0.0639,-0.0676,-0.0681,-0.0725,-0.0727,-0.0762,-0.0781,-0.0823,-0.082,-0.0818,-0.0847,-0.0846,-0.0772,-0.0801,-0.088,-0.0815,-0.0815,-0.0815,-0.0816,0,-0.0444,-0.0455,-0.0482,-0.0513,-0.0522,-0.0557,-0.0625,-0.0641,-0.0685,-0.0713,-0.0752,-0.0764,-0.079,-0.0794,-0.0834,-0.0845,-0.0848,-0.0855,-0.0854,-0.0791,-0.0789,-0.0776,-0.0819,-0.0819,-0.0818,-0.0818,-0.0818,0,-0.0438,-0.047,-0.0495,-0.0509,-0.0542,-0.0581,-0.0609,-0.0668,-0.0683,-0.0753,-0.0776,-0.0812,-0.0833,-0.0861,-0.0846,-0.0871,-0.0864,-0.0906,-0.0828,-0.0821,-0.0888,-0.0884,-0.0921,-0.0921,-0.0921,-0.0921,-0.0921,0,-0.0434,-0.0448,-0.0507,-0.0512,-0.0552,-0.0591,-0.0637,-0.0686,-0.0734,-0.0744,-0.0797,-0.0791,-0.0864,-0.085,-0.0849,-0.0819,-0.0868,-0.0813,-0.0814,-0.089,-0.0887,-0.0886,-0.0883,-0.0919,-0.0919,-0.092,-0.092,0,-0.0424,-0.0449,-0.0474,-0.0527,-0.0546,-0.0591,-0.0639,-0.0673,-0.0732,-0.0753,-0.0772,-0.0798,-0.0797,-0.0804,-0.083,-0.0815,-0.08,-0.0769,-0.0782,-0.0787,-0.072,-0.0719,-0.0703,-0.07,-0.0698,-0.0697,-0.0695,0,-0.0412,-0.043,-0.0493,-0.0516,-0.0545,-0.0598,-0.0625,-0.0682,-0.0699,-0.072,-0.0709,-0.0722,-0.0727,-0.0679,-0.0715,-0.0703,-0.0703,-0.0687,-0.0761,-0.0701,-0.0705,-0.0706,-0.0708,-0.0692,-0.0691,-0.0691,-0.069,0,-0.0384,-0.0429,-0.045,-0.0494,-0.0543,-0.0585,-0.0617,-0.0614,-0.0655,-0.0697,-0.0652,-0.0643,-0.0621,-0.0628,-0.0621,-0.0609,-0.071,-0.0666,-0.0672,-0.0742,-0.0688,-0.0694,-0.0697,-0.0683,-0.0684,-0.0685,-0.0685,0,-0.0377,-0.0394,-0.0433,-0.0476,-0.0525,-0.0562,-0.058,-0.0579,-0.0591,-0.0605,-0.0564,-0.0569,-0.0587,-0.0571,-0.0542,-0.0554,-0.0578,-0.0596,-0.0606,-0.0614,-0.0621,-0.0542,-0.0484,0,0,0,0,0,-0.0379,-0.0374,-0.0401,-0.0449,-0.0503,-0.0536,-0.0564,-0.0578,-0.058,-0.0546,-0.0563,-0.053,-0.0521,-0.0501,-0.0502,-0.0523,-0.0589,-0.0523,-0.0616,-0.0643,-0.0651,-0.0671,0,0,0,0,0,0,-0.0369,-0.0378,-0.0382,-0.0423,-0.0453,-0.0513,-0.0535,-0.055,-0.0511,-0.0512,-0.0494,-0.0518,-0.05,-0.0523,-0.0497,-0.05,-0.0555,-0.0529,-0.0529,-0.0638,-0.0646,-0.0653,-0.0676,0,0,0,0,0]}]]